TUI1280 EDDF-DTTJ

Flight info

Callsign TUI1280
Flight time 2h 28m
Altitude 35000
Route ANEKI2L/18 ANEKI Y163 NATOR DCT TRA DCT RIPUS DCT GERSA DCT SOSON DCT ODINA DCT ELB/N0440F370 DCT DEDOM DCT ABKON DCT PININ DCT TUNEX UM738 DIDON UG727 JBA
Aircraft B738/M-SDE2E3FGHIRWXY/LB1

Departure

Time 2026-05-05 09:38
Airport Frankfurt Main Airport (EDDF)

Arrival

Time 2026-05-05 12:06
Airport Djerba Zarzis International Airport (DTTJ)
Time Latitude Longitude Altitude Speed Heading
2026-05-05 08:27 50.05078 8.58739 359 ft 0 kts 340°
2026-05-05 09:26 50.05063 8.58747 359 ft 4 kts 340°
2026-05-05 09:26 50.05038 8.58762 359 ft 4 kts 340°
2026-05-05 09:26 50.05017 8.58774 366 ft 4 kts 327°
2026-05-05 09:26 50.05006 8.58801 359 ft 4 kts 261°
2026-05-05 09:27 50.05013 8.58839 366 ft 4 kts 250°
2026-05-05 09:27 50.05016 8.58853 359 ft 0 kts 250°
2026-05-05 09:30 50.05012 8.58836 362 ft 5 kts 249°
2026-05-05 09:31 50.04989 8.58739 365 ft 14 kts 249°
2026-05-05 09:31 50.04945 8.58557 365 ft 22 kts 249°
2026-05-05 09:31 50.04891 8.58334 360 ft 21 kts 249°
2026-05-05 09:31 50.04841 8.58126 364 ft 20 kts 249°
2026-05-05 09:32 50.04810 8.57996 360 ft 6 kts 249°
2026-05-05 09:32 50.04793 8.57948 360 ft 8 kts 226°
2026-05-05 09:32 50.04723 8.57908 363 ft 14 kts 213°
2026-05-05 09:32 50.04671 8.57754 361 ft 19 kts 249°
2026-05-05 09:33 50.04614 8.57515 364 ft 27 kts 250°
2026-05-05 09:33 50.04545 8.57224 360 ft 30 kts 249°
2026-05-05 09:33 50.04471 8.56913 363 ft 31 kts 249°
2026-05-05 09:33 50.04394 8.56590 362 ft 33 kts 250°
2026-05-05 09:34 50.04320 8.56278 357 ft 29 kts 250°
2026-05-05 09:34 50.04246 8.55968 356 ft 32 kts 250°
2026-05-05 09:34 50.04164 8.55622 355 ft 36 kts 250°
2026-05-05 09:34 50.04076 8.55255 358 ft 35 kts 249°
2026-05-05 09:35 50.03993 8.54909 355 ft 33 kts 250°
2026-05-05 09:35 50.03857 8.54363 350 ft 17 kts 237°
2026-05-05 09:35 50.03795 8.54207 344 ft 18 kts 248°
2026-05-05 09:36 50.03745 8.53999 345 ft 23 kts 250°
2026-05-05 09:36 50.03683 8.53736 345 ft 27 kts 250°
2026-05-05 09:36 50.03612 8.53451 335 ft 30 kts 249°
2026-05-05 09:36 50.03537 8.53140 337 ft 30 kts 250°
2026-05-05 09:37 50.03469 8.52866 332 ft 24 kts 245°
2026-05-05 09:37 50.03419 8.52671 333 ft 13 kts 246°
2026-05-05 09:37 50.03383 8.52609 333 ft 9 kts 211°
2026-05-05 09:37 50.03223 8.52594 335 ft 45 kts 179°
2026-05-05 09:38 50.02701 8.52600 331 ft 103 kts 180°
2026-05-05 09:38 50.01817 8.52609 330 ft 148 kts 180°
2026-05-05 09:38 50.00701 8.52636 571 ft 165 kts 178°
2026-05-05 09:38 49.99557 8.52739 1098 ft 168 kts 175°
2026-05-05 09:39 49.98333 8.52842 1483 ft 181 kts 178°
2026-05-05 09:39 49.97021 8.52890 1851 ft 195 kts 179°
2026-05-05 09:39 49.95630 8.52935 2345 ft 204 kts 178°
2026-05-05 09:39 49.94170 8.53018 2818 ft 217 kts 178°
2026-05-05 09:40 49.92615 8.53121 3256 ft 232 kts 177°
2026-05-05 09:40 49.90953 8.53247 4006 ft 238 kts 177°
2026-05-05 09:40 49.89285 8.53384 4849 ft 246 kts 177°
2026-05-05 09:40 49.87557 8.53513 5671 ft 249 kts 178°
2026-05-05 09:41 49.85831 8.53642 6632 ft 248 kts 177°
2026-05-05 09:41 49.84097 8.53771 7484 ft 252 kts 177°
2026-05-05 09:41 49.82320 8.53890 8247 ft 257 kts 178°
2026-05-05 09:41 49.80559 8.53991 9253 ft 254 kts 178°
2026-05-05 09:42 49.78790 8.54098 9955 ft 262 kts 178°
2026-05-05 09:42 49.76937 8.54232 10617 ft 273 kts 180°
2026-05-05 09:42 49.74984 8.54020 11064 ft 289 kts 187°
2026-05-05 09:42 49.72934 8.53570 11485 ft 306 kts 188°
2026-05-05 09:43 49.70760 8.53127 11905 ft 323 kts 187°
2026-05-05 09:43 49.68466 8.52782 12380 ft 337 kts 185°
2026-05-05 09:43 49.66099 8.52508 13117 ft 343 kts 184°
2026-05-05 09:43 49.63704 8.52239 13884 ft 347 kts 185°
2026-05-05 09:44 49.61281 8.51938 14667 ft 351 kts 185°
2026-05-05 09:44 49.58830 8.51607 15466 ft 355 kts 185°
2026-05-05 09:44 49.56354 8.51266 16235 ft 359 kts 185°
2026-05-05 09:44 49.53853 8.50930 16994 ft 363 kts 185°
2026-05-05 09:45 49.51323 8.50600 17738 ft 366 kts 185°
2026-05-05 09:45 49.48765 8.50270 18477 ft 370 kts 185°
2026-05-05 09:45 49.46185 8.49933 19153 ft 374 kts 185°
2026-05-05 09:45 49.43579 8.49591 19818 ft 378 kts 185°
2026-05-05 09:46 49.40941 8.49245 20465 ft 382 kts 185°
2026-05-05 09:46 49.39181 8.49015 20884 ft 385 kts 185°
2026-05-05 09:46 49.36494 8.48665 21492 ft 389 kts 185°
2026-05-05 09:46 49.32905 8.48197 22274 ft 393 kts 185°
2026-05-05 09:47 49.30159 8.47839 22840 ft 397 kts 185°
2026-05-05 09:47 49.27395 8.47478 23381 ft 401 kts 185°
2026-05-05 09:47 49.24600 8.47116 23908 ft 404 kts 185°
2026-05-05 09:47 49.22700 8.46870 24258 ft 407 kts 185°
2026-05-05 09:48 49.19899 8.46505 24762 ft 410 kts 185°
2026-05-05 09:48 49.17049 8.46135 25255 ft 412 kts 185°
2026-05-05 09:48 49.14179 8.45763 25741 ft 414 kts 185°
2026-05-05 09:48 49.11300 8.45389 26201 ft 417 kts 185°
2026-05-05 09:49 49.08400 8.45014 26641 ft 419 kts 185°
2026-05-05 09:49 49.05509 8.44444 27050 ft 420 kts 193°
2026-05-05 09:49 49.02643 8.43471 27457 ft 422 kts 193°
2026-05-05 09:49 48.99774 8.42475 27866 ft 424 kts 193°
2026-05-05 09:50 48.96893 8.41458 28242 ft 426 kts 193°
2026-05-05 09:50 48.94006 8.40439 28606 ft 427 kts 193°
2026-05-05 09:50 48.91098 8.39426 28967 ft 429 kts 193°
2026-05-05 09:50 48.88178 8.38418 29294 ft 431 kts 193°
2026-05-05 09:51 48.85249 8.37409 29625 ft 432 kts 193°
2026-05-05 09:51 48.82311 8.36395 29945 ft 434 kts 193°
2026-05-05 09:51 48.79369 8.35376 30351 ft 433 kts 193°
2026-05-05 09:51 48.76441 8.34348 30766 ft 431 kts 193°
2026-05-05 09:52 48.73523 8.33279 31174 ft 430 kts 194°
2026-05-05 09:52 48.70625 8.32195 31583 ft 429 kts 194°
2026-05-05 09:52 48.67729 8.31121 31977 ft 427 kts 194°
2026-05-05 09:52 48.64882 8.30081 32370 ft 426 kts 193°
2026-05-05 09:53 48.62002 8.29042 32756 ft 424 kts 193°
2026-05-05 09:53 48.59139 8.28010 33135 ft 423 kts 194°
2026-05-05 09:53 48.56275 8.26972 33507 ft 422 kts 194°
2026-05-05 09:53 48.53424 8.25937 33866 ft 420 kts 194°
2026-05-05 09:54 48.50570 8.25020 34200 ft 420 kts 187°
2026-05-05 09:54 48.47659 8.24839 34560 ft 419 kts 177°
2026-05-05 09:54 48.44765 8.25393 34844 ft 420 kts 172°
2026-05-05 09:54 48.41860 8.26086 34883 ft 425 kts 172°
2026-05-05 09:55 48.35986 8.27546 34894 ft 425 kts 172°
2026-05-05 09:55 48.30181 8.28954 34893 ft 421 kts 172°
2026-05-05 09:56 48.24389 8.30342 34895 ft 421 kts 172°
2026-05-05 09:56 48.18587 8.31744 34893 ft 422 kts 172°
2026-05-05 09:57 48.12799 8.33142 34898 ft 421 kts 172°
2026-05-05 09:57 48.07003 8.34552 34896 ft 421 kts 172°
2026-05-05 09:58 48.01212 8.35952 34896 ft 421 kts 172°
2026-05-05 09:58 47.95417 8.37349 34901 ft 422 kts 172°
2026-05-05 09:59 47.89660 8.38736 34902 ft 422 kts 172°
2026-05-05 09:59 47.83850 8.40132 34904 ft 422 kts 172°
2026-05-05 10:00 47.78054 8.41522 34916 ft 422 kts 172°
2026-05-05 10:00 47.72251 8.42908 34920 ft 422 kts 172°
2026-05-05 10:01 47.66440 8.44209 34922 ft 423 kts 174°
2026-05-05 10:01 47.60575 8.44963 34919 ft 423 kts 176°
2026-05-05 10:02 47.54718 8.45745 34922 ft 423 kts 175°
2026-05-05 10:02 47.48872 8.46675 34923 ft 422 kts 175°
2026-05-05 10:03 47.43020 8.47525 34922 ft 423 kts 175°
2026-05-05 10:03 47.37185 8.48362 34919 ft 424 kts 175°
2026-05-05 10:04 47.31322 8.49229 34927 ft 423 kts 175°
2026-05-05 10:04 47.25458 8.50085 34918 ft 423 kts 175°
2026-05-05 10:05 47.19590 8.50937 34910 ft 423 kts 175°
2026-05-05 10:05 47.13723 8.51793 34907 ft 424 kts 175°
2026-05-05 10:06 47.07841 8.52646 34929 ft 424 kts 175°
2026-05-05 10:06 47.01991 8.53493 34904 ft 424 kts 175°
2026-05-05 10:07 46.96118 8.54340 34919 ft 425 kts 175°
2026-05-05 10:07 46.90231 8.55187 34912 ft 425 kts 175°
2026-05-05 10:08 46.84346 8.56033 34915 ft 425 kts 176°
2026-05-05 10:08 46.78462 8.56876 34903 ft 425 kts 175°
2026-05-05 10:09 46.72571 8.57719 34931 ft 425 kts 175°
2026-05-05 10:09 46.66679 8.58561 34942 ft 425 kts 176°
2026-05-05 10:10 46.60787 8.59399 34955 ft 425 kts 176°
2026-05-05 10:10 46.54901 8.60235 34961 ft 422 kts 176°
2026-05-05 10:11 46.49091 8.61059 34966 ft 419 kts 176°
2026-05-05 10:11 46.43293 8.61879 34974 ft 419 kts 176°
2026-05-05 10:12 46.37481 8.62699 34979 ft 421 kts 176°
2026-05-05 10:12 46.31644 8.63521 34997 ft 421 kts 176°
2026-05-05 10:13 46.25819 8.64339 35013 ft 420 kts 176°
2026-05-05 10:13 46.19999 8.65156 35014 ft 420 kts 176°
2026-05-05 10:14 46.14183 8.65968 35026 ft 419 kts 176°
2026-05-05 10:14 46.08464 8.67576 35046 ft 423 kts 161°
2026-05-05 10:15 46.02941 8.70560 35037 ft 425 kts 161°
2026-05-05 10:15 45.97418 8.73590 35031 ft 424 kts 161°
2026-05-05 10:16 45.91888 8.76588 35027 ft 425 kts 161°
2026-05-05 10:16 45.86347 8.79580 35030 ft 426 kts 161°
2026-05-05 10:17 45.80835 8.82565 35034 ft 426 kts 161°
2026-05-05 10:17 45.75280 8.85560 35032 ft 426 kts 161°
2026-05-05 10:18 45.69735 8.88543 35033 ft 426 kts 161°
2026-05-05 10:18 45.64168 8.91531 35032 ft 426 kts 161°
2026-05-05 10:19 45.58597 8.94515 35032 ft 427 kts 161°
2026-05-05 10:19 45.53038 8.97489 35032 ft 427 kts 161°
2026-05-05 10:20 45.47471 9.00458 35022 ft 428 kts 161°
2026-05-05 10:20 45.41896 9.03425 35015 ft 428 kts 161°
2026-05-05 10:21 45.36319 9.06389 35012 ft 428 kts 162°
2026-05-05 10:21 45.30731 9.09351 35014 ft 428 kts 162°
2026-05-05 10:22 45.25149 9.12304 35009 ft 428 kts 162°
2026-05-05 10:22 45.19567 9.15251 35017 ft 429 kts 162°
2026-05-05 10:23 45.13966 9.18202 35009 ft 429 kts 162°
2026-05-05 10:23 45.08402 9.21126 35012 ft 429 kts 162°
2026-05-05 10:24 45.02794 9.24067 35016 ft 430 kts 162°
2026-05-05 10:24 44.97183 9.27006 34999 ft 430 kts 162°
2026-05-05 10:25 44.91536 9.29954 35004 ft 430 kts 162°
2026-05-05 10:25 44.85916 9.32886 35012 ft 431 kts 162°
2026-05-05 10:26 44.80328 9.35793 35013 ft 431 kts 162°
2026-05-05 10:26 44.74692 9.38716 35004 ft 432 kts 162°
2026-05-05 10:27 44.69953 9.41174 35012 ft 433 kts 162°
2026-05-05 10:27 44.64297 9.44100 35018 ft 433 kts 162°
2026-05-05 10:28 44.58639 9.47017 35007 ft 433 kts 162°
2026-05-05 10:28 44.53011 9.49917 35015 ft 433 kts 162°
2026-05-05 10:29 44.47351 9.52826 35003 ft 434 kts 162°
2026-05-05 10:29 44.41684 9.55733 35012 ft 434 kts 162°
2026-05-05 10:30 44.36003 9.58642 35011 ft 435 kts 162°
2026-05-05 10:30 44.30315 9.61545 35008 ft 436 kts 162°
2026-05-05 10:31 44.24622 9.64447 35000 ft 435 kts 162°
2026-05-05 10:31 44.18925 9.67347 35009 ft 436 kts 162°
2026-05-05 10:32 44.13220 9.70241 35010 ft 436 kts 162°
2026-05-05 10:32 44.07515 9.73131 35007 ft 436 kts 162°
2026-05-05 10:33 44.01817 9.76013 34999 ft 436 kts 162°
2026-05-05 10:33 43.96104 9.78894 35006 ft 436 kts 162°
2026-05-05 10:34 43.90404 9.81763 35007 ft 436 kts 162°
2026-05-05 10:34 43.84709 9.84624 34999 ft 437 kts 162°
2026-05-05 10:35 43.79002 9.87486 35001 ft 437 kts 162°
2026-05-05 10:35 43.73270 9.90355 34997 ft 437 kts 162°
2026-05-05 10:36 43.67557 9.93209 35009 ft 436 kts 162°
2026-05-05 10:36 43.61853 9.96052 35012 ft 436 kts 163°
2026-05-05 10:37 43.56136 9.98891 35006 ft 436 kts 163°
2026-05-05 10:37 43.50419 10.01731 35016 ft 437 kts 162°
2026-05-05 10:38 43.44697 10.04566 35007 ft 437 kts 163°
2026-05-05 10:38 43.38969 10.07397 35008 ft 437 kts 163°
2026-05-05 10:39 43.33244 10.10221 35013 ft 437 kts 163°
2026-05-05 10:39 43.27517 10.13042 35011 ft 437 kts 163°
2026-05-05 10:40 43.21779 10.15862 35014 ft 438 kts 163°
2026-05-05 10:40 43.16036 10.18677 35013 ft 438 kts 163°
2026-05-05 10:41 43.10334 10.21468 35010 ft 438 kts 163°
2026-05-05 10:41 43.04554 10.24292 35014 ft 438 kts 163°
2026-05-05 10:42 42.95971 10.28472 35015 ft 438 kts 163°
2026-05-05 10:43 42.90222 10.31269 35022 ft 439 kts 163°
2026-05-05 10:43 42.84470 10.34058 35021 ft 439 kts 163°
2026-05-05 10:44 42.78708 10.36846 35028 ft 439 kts 163°
2026-05-05 10:44 42.72904 10.39377 35041 ft 435 kts 173°
2026-05-05 10:45 42.66905 10.39975 35046 ft 433 kts 180°
2026-05-05 10:45 42.60885 10.40326 35042 ft 433 kts 180°
2026-05-05 10:46 42.54861 10.40688 35041 ft 433 kts 180°
2026-05-05 10:46 42.48844 10.41068 35041 ft 432 kts 180°
2026-05-05 10:47 42.42867 10.41432 35041 ft 433 kts 180°
2026-05-05 10:47 42.36845 10.41798 35041 ft 433 kts 180°
2026-05-05 10:48 42.30831 10.42168 35045 ft 433 kts 180°
2026-05-05 10:48 42.24802 10.42535 35048 ft 433 kts 181°
2026-05-05 10:49 42.18783 10.42901 35046 ft 433 kts 181°
2026-05-05 10:49 42.12771 10.43266 35041 ft 433 kts 181°
2026-05-05 10:50 42.06750 10.43994 35040 ft 435 kts 175°
2026-05-05 10:50 42.00761 10.45257 35043 ft 435 kts 175°
2026-05-05 10:51 41.94757 10.46272 35040 ft 434 kts 177°
2026-05-05 10:51 41.88752 10.47235 35041 ft 435 kts 176°
2026-05-05 10:52 41.82740 10.48294 35040 ft 435 kts 176°
2026-05-05 10:52 41.76734 10.49323 35040 ft 435 kts 176°
2026-05-05 10:53 41.70723 10.50333 35043 ft 435 kts 176°
2026-05-05 10:53 41.64712 10.51357 35046 ft 436 kts 176°
2026-05-05 10:54 41.58692 10.52381 35035 ft 435 kts 176°
2026-05-05 10:54 41.52682 10.53396 35031 ft 435 kts 176°
2026-05-05 10:55 41.46678 10.54410 35031 ft 435 kts 176°
2026-05-05 10:55 41.40700 10.55416 35031 ft 436 kts 176°
2026-05-05 10:56 41.34679 10.56430 35031 ft 436 kts 176°
2026-05-05 10:56 41.28654 10.57441 35028 ft 437 kts 176°
2026-05-05 10:57 41.22637 10.58451 35022 ft 435 kts 176°
2026-05-05 10:57 41.16627 10.59456 35024 ft 435 kts 176°
2026-05-05 10:58 41.10611 10.60457 35021 ft 436 kts 176°
2026-05-05 10:58 41.04594 10.61463 35024 ft 436 kts 176°
2026-05-05 10:59 40.98575 10.62465 35023 ft 436 kts 176°
2026-05-05 10:59 40.92559 10.63463 35021 ft 436 kts 176°
2026-05-05 11:00 40.86522 10.64464 35022 ft 437 kts 176°
2026-05-05 11:00 40.80489 10.65463 35032 ft 436 kts 176°
2026-05-05 11:01 40.74462 10.66458 35030 ft 436 kts 176°
2026-05-05 11:01 40.68480 10.67444 35030 ft 436 kts 176°
2026-05-05 11:02 40.62459 10.68435 35029 ft 436 kts 176°
2026-05-05 11:02 40.56418 10.69425 35050 ft 437 kts 176°
2026-05-05 11:03 40.50373 10.70420 35042 ft 437 kts 176°
2026-05-05 11:03 40.44335 10.71407 35040 ft 437 kts 176°
2026-05-05 11:04 40.38310 10.72390 35041 ft 437 kts 176°
2026-05-05 11:04 40.32283 10.73373 35043 ft 437 kts 176°
2026-05-05 11:05 40.26245 10.74357 35043 ft 436 kts 176°
2026-05-05 11:05 40.20212 10.75336 35042 ft 437 kts 176°
2026-05-05 11:06 40.14171 10.76316 35048 ft 437 kts 176°
2026-05-05 11:06 40.08175 10.77288 35048 ft 437 kts 176°
2026-05-05 11:07 40.02136 10.78264 35050 ft 437 kts 176°
2026-05-05 11:07 39.96096 10.79238 35050 ft 437 kts 176°
2026-05-05 11:08 39.90049 10.80211 35050 ft 438 kts 176°
2026-05-05 11:08 39.84050 10.81657 35055 ft 440 kts 169°
2026-05-05 11:09 39.79095 10.83183 35053 ft 441 kts 169°
2026-05-05 11:09 39.73129 10.85044 35056 ft 441 kts 169°
2026-05-05 11:10 39.67160 10.86894 35059 ft 441 kts 169°
2026-05-05 11:10 39.61197 10.88735 35060 ft 440 kts 169°
2026-05-05 11:11 39.55240 10.90575 35059 ft 440 kts 169°
2026-05-05 11:11 39.49273 10.92412 35059 ft 441 kts 169°
2026-05-05 11:12 39.43293 10.94250 35059 ft 441 kts 169°
2026-05-05 11:12 39.37321 10.96085 35064 ft 441 kts 169°
2026-05-05 11:13 39.31351 10.97915 35071 ft 441 kts 169°
2026-05-05 11:13 39.25373 10.99740 35075 ft 441 kts 169°
2026-05-05 11:14 39.19393 11.01568 35079 ft 442 kts 169°
2026-05-05 11:14 39.13411 11.03393 35079 ft 442 kts 169°
2026-05-05 11:15 39.07434 11.05212 35072 ft 441 kts 169°
2026-05-05 11:15 39.01460 11.07024 35086 ft 441 kts 169°
2026-05-05 11:16 38.95484 11.08837 35095 ft 441 kts 169°
2026-05-05 11:16 38.89507 11.10647 35095 ft 441 kts 169°
2026-05-05 11:17 38.83532 11.12453 35095 ft 441 kts 169°
2026-05-05 11:17 38.77552 11.14255 35096 ft 442 kts 169°
2026-05-05 11:18 38.71567 11.16060 35097 ft 442 kts 169°
2026-05-05 11:18 38.65576 11.17859 35095 ft 441 kts 169°
2026-05-05 11:19 38.59638 11.19642 35097 ft 441 kts 169°
2026-05-05 11:19 38.53662 11.21432 35097 ft 441 kts 169°
2026-05-05 11:20 38.47678 11.23221 35096 ft 441 kts 169°
2026-05-05 11:20 38.41688 11.25011 35095 ft 441 kts 169°
2026-05-05 11:21 38.35704 11.26794 35096 ft 441 kts 169°
2026-05-05 11:21 38.29728 11.28572 35100 ft 441 kts 169°
2026-05-05 11:22 38.23794 11.30335 35103 ft 441 kts 169°
2026-05-05 11:22 38.17817 11.32108 35104 ft 441 kts 169°
2026-05-05 11:23 38.11835 11.33878 35099 ft 441 kts 169°
2026-05-05 11:23 38.05849 11.35648 35098 ft 441 kts 169°
2026-05-05 11:24 37.99869 11.37412 35095 ft 441 kts 169°
2026-05-05 11:24 37.93859 11.38874 35105 ft 437 kts 180°
2026-05-05 11:24 37.90836 11.38719 35109 ft 434 kts 191°
2026-05-05 11:25 37.87890 11.37947 35110 ft 432 kts 195°
2026-05-05 11:25 37.82039 11.36194 35107 ft 432 kts 196°
2026-05-05 11:26 37.76187 11.34426 35105 ft 433 kts 196°
2026-05-05 11:26 37.70318 11.32694 35105 ft 432 kts 195°
2026-05-05 11:27 37.64469 11.30959 35105 ft 432 kts 196°
2026-05-05 11:27 37.58607 11.29219 35104 ft 432 kts 196°
2026-05-05 11:28 37.52751 11.27481 35104 ft 432 kts 196°
2026-05-05 11:28 37.46895 11.25746 35106 ft 432 kts 196°
2026-05-05 11:29 37.41075 11.24023 35099 ft 433 kts 196°
2026-05-05 11:29 37.35216 11.22294 35096 ft 432 kts 196°
2026-05-05 11:30 37.29362 11.20567 35089 ft 432 kts 196°
2026-05-05 11:30 37.23504 11.18842 35080 ft 433 kts 196°
2026-05-05 11:31 37.17640 11.17119 35093 ft 433 kts 196°
2026-05-05 11:31 37.11771 11.15397 35085 ft 432 kts 196°
2026-05-05 11:32 37.05905 11.13678 35083 ft 433 kts 196°
2026-05-05 11:32 37.00032 11.11960 35090 ft 433 kts 196°
2026-05-05 11:33 36.94156 11.10244 35091 ft 433 kts 196°
2026-05-05 11:33 36.88286 11.08530 35094 ft 433 kts 196°
2026-05-05 11:34 36.82443 11.06737 35092 ft 432 kts 197°
2026-05-05 11:34 36.76600 11.04925 35091 ft 432 kts 196°
2026-05-05 11:35 36.70752 11.03150 35092 ft 433 kts 196°
2026-05-05 11:35 36.64890 11.01381 35088 ft 433 kts 196°
2026-05-05 11:36 36.59029 10.99625 35085 ft 433 kts 196°
2026-05-05 11:36 36.53180 10.97872 35074 ft 433 kts 196°
2026-05-05 11:37 36.47318 10.96111 35081 ft 433 kts 196°
2026-05-05 11:37 36.41453 10.94359 35076 ft 433 kts 196°
2026-05-05 11:38 36.35598 10.92611 35072 ft 433 kts 196°
2026-05-05 11:38 36.29777 10.90876 35068 ft 433 kts 196°
2026-05-05 11:39 36.23916 10.89132 35067 ft 432 kts 196°
2026-05-05 11:39 36.18060 10.87391 35069 ft 433 kts 196°
2026-05-05 11:40 36.12201 10.85654 35069 ft 433 kts 196°
2026-05-05 11:40 36.06342 10.83915 35061 ft 433 kts 196°
2026-05-05 11:41 36.00480 10.82182 35067 ft 433 kts 196°
2026-05-05 11:41 35.94626 10.80453 35062 ft 433 kts 196°
2026-05-05 11:42 35.88751 10.78720 35056 ft 434 kts 196°
2026-05-05 11:42 35.82868 10.76989 35059 ft 434 kts 196°
2026-05-05 11:43 35.76999 10.75264 35060 ft 433 kts 195°
2026-05-05 11:43 35.70967 10.74553 35067 ft 437 kts 185°
2026-05-05 11:44 35.64871 10.74206 35063 ft 438 kts 185°
2026-05-05 11:44 35.58774 10.73869 35039 ft 438 kts 185°
2026-05-05 11:44 35.55717 10.73693 34496 ft 440 kts 185°
2026-05-05 11:45 35.52661 10.73516 33998 ft 439 kts 185°
2026-05-05 11:45 35.49654 10.73344 33513 ft 437 kts 185°
2026-05-05 11:45 35.46619 10.73171 33022 ft 436 kts 185°
2026-05-05 11:45 35.43585 10.73000 32539 ft 434 kts 185°
2026-05-05 11:46 35.40572 10.72828 32048 ft 432 kts 185°
2026-05-05 11:46 35.37573 10.72656 31555 ft 431 kts 185°
2026-05-05 11:46 35.34581 10.72483 31069 ft 429 kts 185°
2026-05-05 11:46 35.31595 10.72310 30562 ft 428 kts 185°
2026-05-05 11:47 35.28620 10.72140 30065 ft 427 kts 185°
2026-05-05 11:47 35.25650 10.71971 29554 ft 426 kts 185°
2026-05-05 11:47 35.22696 10.71801 29046 ft 424 kts 185°
2026-05-05 11:47 35.19746 10.71631 28540 ft 423 kts 185°
2026-05-05 11:48 35.13869 10.71295 27502 ft 422 kts 185°
2026-05-05 11:48 35.11932 10.71184 27158 ft 421 kts 185°
2026-05-05 11:48 35.09012 10.71017 26629 ft 420 kts 185°
2026-05-05 11:49 35.06095 10.70851 26102 ft 419 kts 184°
2026-05-05 11:49 35.03187 10.70685 25570 ft 418 kts 184°
2026-05-05 11:49 35.00290 10.70520 25037 ft 417 kts 184°
2026-05-05 11:49 34.97400 10.70356 24495 ft 416 kts 184°
2026-05-05 11:50 34.94516 10.70190 23937 ft 414 kts 184°
2026-05-05 11:50 34.91638 10.70026 23401 ft 413 kts 184°
2026-05-05 11:50 34.88764 10.69864 22841 ft 412 kts 184°
2026-05-05 11:50 34.85906 10.69703 22289 ft 411 kts 184°
2026-05-05 11:51 34.83047 10.69541 21721 ft 410 kts 184°
2026-05-05 11:51 34.80204 10.69379 21152 ft 409 kts 184°
2026-05-05 11:51 34.77356 10.69217 20575 ft 408 kts 184°
2026-05-05 11:51 34.74529 10.69057 19999 ft 406 kts 184°
2026-05-05 11:52 34.71711 10.68884 19422 ft 404 kts 186°
2026-05-05 11:52 34.68931 10.68469 18848 ft 402 kts 189°
2026-05-05 11:52 34.66161 10.68020 18255 ft 400 kts 189°
2026-05-05 11:52 34.63442 10.67563 17678 ft 399 kts 189°
2026-05-05 11:53 34.60697 10.67102 17082 ft 397 kts 189°
2026-05-05 11:53 34.57964 10.66652 16481 ft 396 kts 189°
2026-05-05 11:53 34.55240 10.66212 15877 ft 394 kts 188°
2026-05-05 11:53 34.52521 10.65773 15279 ft 393 kts 188°
2026-05-05 11:54 34.49816 10.65334 14669 ft 392 kts 188°
2026-05-05 11:54 34.47116 10.64894 14048 ft 390 kts 188°
2026-05-05 11:54 34.44433 10.64438 13430 ft 388 kts 191°
2026-05-05 11:54 34.41803 10.63719 12817 ft 386 kts 194°
2026-05-05 11:55 34.39191 10.62945 12190 ft 384 kts 194°
2026-05-05 11:55 34.36606 10.62169 11562 ft 382 kts 194°
2026-05-05 11:55 34.34029 10.61391 10929 ft 380 kts 194°
2026-05-05 11:55 34.31467 10.60612 10303 ft 378 kts 194°
2026-05-05 11:56 34.28948 10.59841 10018 ft 367 kts 194°
2026-05-05 11:56 34.26513 10.59092 9739 ft 355 kts 194°
2026-05-05 11:56 34.24168 10.58370 9435 ft 343 kts 194°
2026-05-05 11:56 34.21879 10.57663 8969 ft 337 kts 194°
2026-05-05 11:57 34.19646 10.56969 8398 ft 334 kts 194°
2026-05-05 11:57 34.17375 10.56262 7839 ft 331 kts 194°
2026-05-05 11:57 34.15157 10.55571 7297 ft 327 kts 194°
2026-05-05 11:57 34.12970 10.54889 6732 ft 320 kts 194°
2026-05-05 11:58 34.10878 10.54235 6196 ft 310 kts 194°
2026-05-05 11:58 34.08827 10.53593 5647 ft 301 kts 194°
2026-05-05 11:58 34.06826 10.52965 5096 ft 294 kts 194°
2026-05-05 11:58 34.04836 10.52337 4534 ft 289 kts 194°
2026-05-05 11:59 34.02938 10.51734 3997 ft 285 kts 194°
2026-05-05 11:59 34.01003 10.51114 3451 ft 289 kts 194°
2026-05-05 11:59 33.99053 10.50485 2950 ft 289 kts 194°
2026-05-05 11:59 33.97115 10.49883 2524 ft 285 kts 189°
2026-05-05 12:00 33.95158 10.49676 2107 ft 281 kts 182°
2026-05-05 12:00 33.93209 10.49563 1687 ft 279 kts 181°
2026-05-05 12:00 33.91306 10.49462 1598 ft 267 kts 181°
2026-05-05 12:00 33.89513 10.49541 1585 ft 249 kts 160°
2026-05-05 12:01 33.88167 10.50683 1607 ft 232 kts 126°
2026-05-05 12:01 33.87404 10.52343 1598 ft 221 kts 110°
2026-05-05 12:01 33.86969 10.54056 1576 ft 208 kts 92°
2026-05-05 12:01 33.87021 10.55760 1588 ft 202 kts 91°
2026-05-05 12:02 33.87030 10.57418 1587 ft 194 kts 89°
2026-05-05 12:02 33.87064 10.58987 1581 ft 183 kts 88°
2026-05-05 12:02 33.87102 10.60480 1584 ft 175 kts 88°
2026-05-05 12:02 33.87141 10.61940 1583 ft 172 kts 87°
2026-05-05 12:03 33.87179 10.63373 1587 ft 171 kts 88°
2026-05-05 12:03 33.87214 10.64757 1582 ft 158 kts 87°
2026-05-05 12:03 33.87247 10.66030 1582 ft 150 kts 87°
2026-05-05 12:03 33.87279 10.67258 1454 ft 142 kts 87°
2026-05-05 12:04 33.87310 10.68441 1269 ft 140 kts 86°
2026-05-05 12:04 33.87337 10.69597 1065 ft 136 kts 86°
2026-05-05 12:04 33.87367 10.70706 884 ft 135 kts 86°
2026-05-05 12:04 33.87396 10.71845 711 ft 140 kts 86°
2026-05-05 12:05 33.87431 10.73038 563 ft 140 kts 86°
2026-05-05 12:05 33.87459 10.74192 326 ft 139 kts 87°
2026-05-05 12:05 33.87490 10.75327 151 ft 132 kts 87°
2026-05-05 12:05 33.87516 10.76430 19 ft 129 kts 87°
2026-05-05 12:06 33.87535 10.77238 20 ft 70 kts 89°
2026-05-05 12:06 33.87547 10.77821 21 ft 66 kts 88°
2026-05-05 12:06 33.87561 10.78325 18 ft 51 kts 88°
2026-05-05 12:06 33.87558 10.78567 22 ft 15 kts 119°
2026-05-05 12:07 33.87474 10.78600 20 ft 13 kts 183°
2026-05-05 12:07 33.87405 10.78553 21 ft 11 kts 246°
2026-05-05 12:07 33.87398 10.78478 26 ft 7 kts 268°
2026-05-05 12:07 33.87396 10.78433 29 ft 6 kts 268°
2026-05-05 12:08 33.87394 10.78373 26 ft 8 kts 268°
2026-05-05 12:08 33.87392 10.78292 29 ft 11 kts 268°
2026-05-05 12:08 33.87398 10.78190 29 ft 13 kts 268°
2026-05-05 12:08 33.87394 10.78037 29 ft 23 kts 268°
2026-05-05 12:09 33.87389 10.77842 31 ft 23 kts 268°
2026-05-05 12:09 33.87383 10.77645 28 ft 24 kts 268°
2026-05-05 12:09 33.87380 10.77445 29 ft 23 kts 269°
2026-05-05 12:09 33.87378 10.77334 28 ft 11 kts 266°
2026-05-05 12:10 33.87367 10.77264 27 ft 7 kts 252°
2026-05-05 12:10 33.87334 10.77245 27 ft 6 kts 177°
2026-05-05 12:10 33.87289 10.77251 26 ft 7 kts 167°
2026-05-05 12:10 33.87245 10.77286 26 ft 8 kts 130°
2026-05-05 12:11 33.87225 10.77309 26 ft 3 kts 141°
2026-05-05 12:11 33.87211 10.77322 26 ft 2 kts 141°
2026-05-05 12:11 33.87209 10.77324 26 ft 0 kts 141°